jkys5.com alexa rank chart, jkys5.com alexa rank daily changes

jkys5.com alexa rank chart, jkys5.com alexa rank daily changes

jkys5.com
Actual rank:
79 590

RANK HISTORY

Date Rank Diff
2017/04/24 79 590 -3 493
2017/04/23 83 083 -118
2017/04/22 83 201 -12
2017/04/21 83 213 +1 794
2017/04/20 81 419 +242
2017/04/19 81 177 -1 445
2017/04/18 82 622 -3 030
2017/04/17 85 652 +1 358
2017/04/16 84 294 +1 186
2017/04/15 83 108 -1 766
2017/04/14 84 874 +1 372
2017/04/13 83 502 +189
2017/04/12 83 313 -1 510
2017/04/11 84 823 -1 951
2017/04/10 86 774 +893
2017/04/09 85 881 -3 345
2017/04/08 89 226 +2 688
2017/04/07 86 538 -1 466
2017/04/06 88 004 -1 472
2017/04/05 89 476 -3 918
2017/04/04 93 394 -4 353
2017/04/03 97 747 -327
2017/04/02 98 074 +3 791
2017/04/01 94 283 +2 551
2017/03/31 91 732 +695
2017/03/30 91 037 +750
2017/03/29 90 287 -1 771
2017/03/28 92 058 -1 971
2017/03/27 94 029 -236
2017/03/26 94 265 -1 981
2017/03/25 96 246 +3 478
2017/03/24 92 768 +5 292
2017/03/23 87 476 -74
2017/03/22 87 550 +3 051
2017/03/21 84 499 -3 925
2017/03/20 88 424 -259
2017/03/19 88 683 +18
2017/03/18 88 665 -1 375
2017/03/17 90 040 +1 021
2017/03/16 89 019 +2 787
2017/03/15 86 232 +3 160
2017/03/14 83 072 -1 415
2017/03/13 84 487 -87
2017/03/12 84 574 +1 299
2017/03/11 83 275 -1 578
2017/03/10 84 853 -3 487
2017/03/09 88 340 +23
2017/03/08 88 317 +1 079
2017/03/07 87 238 -4 877
2017/03/06 92 115 -4 538
2017/03/01 96 653 -7 143
2017/02/28 103 796 -706
2017/02/27 104 502 -780
2017/02/26 105 282 -231
2017/02/25 105 513 -5 346
2017/02/24 110 859 -9 401
2017/02/23 120 260

WIDGET FOR YOUR SITE

DOMAINS WITH THE NEAREST RANK

Domain Rank
bpm-power.com 79 585
el-mexicano.com.mx 79 586
sutd.edu.sg 79 587
senzuritv.net 79 588
mnd.gov.tw 79 589
jkys5.com 79 590
harryanddavid.com 79 591
bustimes.org.uk 79 592
esic.edu 79 593
cquestions.com 79 594
saaravita.lk 79 595

DOMAINS WITH THE NEAREST RANK BY TLD .com

Domain Rank
mediabks.com 79 575
1766bbs.com 79 576
serietvu.com 79 583
mr-ripple.com 79 584
bpm-power.com 79 585
jkys5.com 79 590
harryanddavid.com 79 591
cquestions.com 79 594
mydevices.com 79 596
karafun.com 79 597
cittadellaspezia.com 79 599